KUIPER-00188

导读 | 豆包AI

KUIPER-00188是美国亚马逊公司“柯伊伯计划”卫星互联网星座中的一颗量产卫星,于2025年12月15日发射升空。该计划计划在近地轨道部署3236颗卫星,旨在为全球提供高速、经济的卫星互联网接入服务,KUIPER-00188将和同批次卫星共同推进全球网络覆盖,助力偏远地区互联网连接。

Basic Information
目录编号:
67142
目录名称:
KUIPER-00188
国际标识:
2025-301K
轨道中心:
EARTH
卫星名称:
KUIPER-00188
卫星全名:
KUIPER-00188
卫星状态:
在轨 (已飞行161 天)
发射日期:
2025-12-15 UTC
国别 :
美国 (US)
星等 :
--
Orbit Information
数据来源 国际轨道数据
星历时间: 2026-05-21T12:05:31+0800
4天前
查看轨道信息
半长轴: 7016.735km
偏心率: 0.0001274
轨道倾角: 51.903°
近地点辐角 139.730°
升交点赤经 87.716°
平近点角 220.376°
近地点: 637.704km
远地点: 639.492km
周期: 97.491分钟
每日圈数: 14.770669
Detailed Information
使用方式:
暂无
2D Orbit Map
3D Orbit Map
Orbit Altitude Analysis Chart
Orbit Inclination Analysis Chart
Orbit Comprehensive Analysis Chart
View Comprehensive Chart